Dauntless Aviation
Airports South America Argentina
SABE
AEP

Jorge Newbery Airpark

Buenos Aires, ARGENTINA

Airport Info
Suggest Updated Information for this Airport

Location

Latitude / Longitude: 34°33'33"S / 58°24'56"W
  34°33.552'S / 58°24.936'W
  -34.5592 / -58.4156

Nearby radio navigation aids

FDO SAN FERNANDO VOR/DME. 132.7° 10.6nm from FDO to field.
OP AEROPARQUE JORGE NEWBERY NDB. 131.1° 4.3nm from OP to field.

Runway Information

Runway 13 /31

Dimensions: 6890 x 131 ft.
Surface: ASP
 
Runway 13
Runway 31
Latitude: -34.553942 -34.563844
Longitude: -58.425247 -58.407506
Elevation: 18 ft. 18 ft.
Runway true heading: 126.3 306.3
 

Instrument Procedures

  Aerodrome Chart

STARs (Standard Terminal Arrivals)

  STAR Rwy 13/16 SARGO7C KOVUK7C TENIL7C BELGRANO7C
  STAR Rwy 13/16 PAGON7C SAN ANTONIO7C ASADA7C VALOS8C
  STAR Rwy 13/16 SURBO7A KUKEN1C PAPIX1C
  STAR Rwy 31 SURBO2B SARGO7D KOVUK7D TENIL7D BELGRANO7D VALOS7D ASADA7D
  STAR Rwy 31 PAGON7D SAN ANTONIO7D

IAPs (Instrument Approach Procedures)

  VOR (DME) ILS Rwy 13
  VOR (DMS) ILS (DME) Rwy 13
  LI ILS (DME) Rwy 13
  VOR (DME) LO LI Rwy 13
  LI LO LI Rwy 13
  LI Rwy 31
  LI Rwy 31

Departure Procedures

  SID Rwy 13/31 LANDA3B VIBAM38 ATOVO38
  SID Rwy 13/31 EZEIZA8
  SID Rwy 13/31 EL PALOMAR 8
  SID Rwy 13/31 KUKEN7 SURBO7 DORVO7 LA PLAYA7
Satellite photo at:
Airport distance calculator
From:
Weather Reports

METAR

SABE

SABE 201400Z 02008KT 340V050 9999 SCT016 SCT025 BKN100 23/21 Q1013 NOSIG
SADF
10.6nm W
SADF 201400Z 27002KT 9999 SCT015 BKN025 OVC100 23/19 Q1012
SAEZ
16.2nm S
SAEZ 201400Z 02004KT 3000 -RA BKN015 OVC070 23/22 Q1012 NOSIG
SUCA
32.8nm NE
SUCA 201400Z 05010G20KT 8000 -RA FEW010 FEW033CB BKN085 23/20 Q1010

TAF

SABE
TAF SABE 201100Z 2012/2112 34010KT 5000 TSRA SCT010 FEW050CB OVC050 TX24/2017Z TN20/2110Z BECMG 2012/2015 VRB04KT 7000 RA BKN020 OVC045 TEMPO 2015/2017 09010KT 9999 NSW BKN040 PROB40 TEMPO 2017/2103 7000 SHRA SCT010 FEW030TCU BKN040 BECMG 2103/2105 VRB03KT 6000 SCT008 BKN015
SADF
10.6nm W
TAF SADF 201100Z 2012/2112 05010KT 8000 -RA SCT015 BKN050 TX26/2019Z TN19/2110Z BECMG 2013/2015 02005KT 9999 SCT025 FEW030TCU BECMG 2021/2023 34005KT CAVOK BECMG 2108/2110 27005KT 9999 BKN015
SAEZ
16.2nm S
TAF SAEZ 201100Z 2012/2112 VRB05KT 5000 SHRA BKN010 FEW050CB OVC060 TX25/2018Z TN20/2109Z BECMG 2013/2016 8000 RADZ SCT010 BKN040 BECMG 2018/2021 05007KT 8000 SHRA BKN030 FEW050TCU BECMG 2100/2103 9000 RADZ BKN015 OVC050 BECMG 2103/2106 VRB05KT 5000 BR PROB30 2106/2112 2000 MIFG DZ OVC003
SUCA
32.8nm NE
TAF SUCA 201130Z 2012/2112 05010KT 9999 SCT020 BKN080 TX27/2018Z TN20/2110Z TEMPO 2012/2018 7000 TSRA FEW040CB BKN060 TEMPO 2020/2108 4000 TSRA SCT015 FEW040CB BKN060
Safelog

 

Dauntless Aviation

© 2007-2018 Dauntless Aviation, all rights reserved
Information provided via PilotNav comes from a variety of official and unofficial data sources. As errors are possible, do not use PilotNav for primary flight planning purposes. Verify any information that you receive via PilotNav with current and canonical charts and other official documents. The material in this database is subject to database copyrights held by Dauntless Aviation and may not be copied without the express permission of Dauntless Aviation - licenses for use of part of all of this data are available for purchase; enquire via the Dauntless Aviation helpdesk. A number of mechanisms and markers exist in the database to protect against and identify infringement / copyright. Automated queries against this website are stictly prohibited, and all activity is logged and analyzed.